Athens, GA

9:27 AM EST on February 08, 2016 (GMT -0500)
Athens / Epps

Weather History for KAHN - December, 2011

Change the Weather History Date:

Thursday, December 15, 2011

  Actual Average Record
Temperature  
Mean Temperature 57 °F 45 °F  
Max Temperature 71 °F 56 °F 76 °F (1929)
Min Temperature 43 °F 35 °F 14 °F (1901)
Degree Days  
Heating Degree Days 8 20  
Month to date heating degree days 230 273  
Since 1 July heating degree days 725 753  
Growing Degree Days 6 (Base 50)    
Moisture  
Dew Point 48 °F    
Average Humidity 71    
Maximum Humidity 93    
Minimum Humidity 49    
Precipitation  
Precipitation 0.00 in 0.12 in 2.95 in (1884)
Month to date precipitation 0.47 1.86  
Year to date precipitation 33.90 44.46  
Snow  
Snow 0.00 in 0.00 in 0.00 in (2001)
Month to date snowfall 0.0 0.0  
Since 1 July snowfall 0.0 0.0  
Snow Depth -    
Sea Level Pressure  
Sea Level Pressure 30.24 in    
Wind  
Wind Speed 5 mph (SSW)    
Max Wind Speed 15 mph    
Max Gust Speed 22 mph    
Visibility 7 miles    
Events Fog    
T = Trace of Precipitation, MM = Missing Value Source: NWS Daily Summary

Daily Weather History Graph

Daily Weather History Graph

Search for Another Location

Airport or City:

Trip Planner

Search our weather history database for the weather conditions in past years. The results will help you decide how hot, cold, wet, or windy it might be!

Date:

Astronomy

Dec. 15, 2011 Rise Set
Actual Time 7:31 AM EST 5:25 PM EST
Civil Twilight 7:03 AM EST 5:53 PM EST
Nautical Twilight 6:32 AM EST 6:24 PM EST
Astronomical Twilight 6:01 AM EST 6:55 PM EST
Moon 10:38 PM EST (12/15) 10:57 AM EST (12/15)
Length of Visible Light 10h 50m
Length of Day
9h 54m
Waning Gibbous, 75% of the Moon is Illuminated
Dec 15
Waning Gibbous
Dec 17
Last Quarter
Dec 24
New
Jan 1
First Quarter
Jan 9
Full

Hourly Weather History & Observations

Time (EST) Temp. Dew Point Humidity Pressure Visibility Wind Dir Wind Speed Gust Speed Precip Events Conditions
12:51 AM 52.0 °F 46.0 °F 80% 30.25 in 10.0 mi South 4.6 mph - N/A   Clear
1:51 AM 51.1 °F 46.0 °F 83% 30.25 in 10.0 mi South 4.6 mph - N/A   Clear
2:51 AM 50.0 °F 46.4 °F 87% 30.27 in 10.0 mi SSW 3.5 mph - N/A   Clear
3:51 AM 48.0 °F 45.0 °F 89% 30.28 in 9.0 mi Calm Calm - N/A   Clear
4:51 AM 46.9 °F 45.0 °F 93% 30.28 in 7.0 mi Calm Calm - N/A   Clear
5:51 AM 48.0 °F 45.0 °F 89% 30.28 in 8.0 mi Calm Calm - N/A   Clear
6:51 AM 46.0 °F 44.1 °F 93% 30.28 in 3.0 mi Calm Calm - N/A   Scattered Clouds
6:53 AM 44.6 °F 44.6 °F 100% 30.28 in 1.2 mi Calm Calm - N/A   Scattered Clouds
6:56 AM 42.8 °F 42.8 °F 100% 30.28 in 0.5 mi Calm Calm - N/A Fog Fog
7:06 AM 44.6 °F 42.8 °F 93% 30.28 in 1.0 mi Calm Calm - N/A   Mostly Cloudy
7:08 AM 44.6 °F 42.8 °F 93% 30.28 in 2.0 mi Calm Calm - N/A   Overcast
7:16 AM 44.6 °F 42.8 °F 93% 30.28 in 3.0 mi Calm Calm - N/A   Mostly Cloudy
7:39 AM 44.6 °F 42.8 °F 93% 30.28 in 1.8 mi Calm Calm - N/A   Partly Cloudy
7:49 AM 46.4 °F 44.6 °F 93% 30.28 in 3.0 mi Calm Calm - N/A   Clear
7:51 AM 46.0 °F 44.1 °F 93% 30.29 in 3.0 mi Calm Calm - N/A   Clear
8:51 AM 50.0 °F 48.0 °F 93% 30.29 in 6.0 mi Calm Calm - N/A   Overcast
9:51 AM 55.0 °F 48.9 °F 80% 30.29 in 9.0 mi SW 4.6 mph - N/A   Mostly Cloudy
10:51 AM 61.0 °F 52.0 °F 72% 30.28 in 10.0 mi SW 8.1 mph - N/A   Clear
11:51 AM 64.9 °F 52.0 °F 63% 30.25 in 10.0 mi SW 10.4 mph 18.4 mph N/A   Clear
12:51 PM 68.0 °F 52.0 °F 56% 30.22 in 10.0 mi SSW 11.5 mph - N/A   Partly Cloudy
1:51 PM 70.0 °F 53.1 °F 55% 30.18 in 10.0 mi SSW 12.7 mph 17.3 mph N/A   Scattered Clouds
2:51 PM 71.1 °F 52.0 °F 51% 30.16 in 10.0 mi SW 11.5 mph 16.1 mph N/A   Clear
3:51 PM 69.1 °F 52.0 °F 54% 30.15 in 10.0 mi SSW 8.1 mph - N/A   Mostly Cloudy
4:51 PM 68.0 °F 52.0 °F 56% 30.16 in 10.0 mi SSW 5.8 mph - N/A   Mostly Cloudy
5:51 PM 66.0 °F 53.1 °F 63% 30.16 in 10.0 mi SSW 3.5 mph - N/A   Overcast
6:51 PM 62.1 °F 52.0 °F 70% 30.17 in 10.0 mi Calm Calm - N/A   Clear
7:51 PM 62.1 °F 53.1 °F 72% 30.17 in 10.0 mi SSW 5.8 mph - N/A   Scattered Clouds
8:51 PM 63.0 °F 53.1 °F 70% 30.18 in 10.0 mi SW 4.6 mph - N/A   Overcast
9:51 PM 63.0 °F 53.1 °F 70% 30.19 in 10.0 mi SW 4.6 mph - N/A   Overcast
10:51 PM 63.0 °F 54.0 °F 72% 30.19 in 10.0 mi WSW 4.6 mph - N/A   Overcast
11:51 PM 63.0 °F 54.0 °F 72% 30.19 in 10.0 mi SW 4.6 mph - N/A   Overcast